When you browse on this site, cookies collect data to enhance your experience and personalize the content and advertising you see.
Visit our Privacy Policy to learn more. By continuing to use the site, you agree to this use of cookies and data.
  • en Belgique
  • Liste des pays
  • À 7 jours
  • Température de l'eau
  • Carte météo
  • Widgets météo
  • user-avatar
    Se connecter

    Météo par heure à Lesnoe

    Ce jour, 26 Mai, Mardi

    Heure Température Précipitation Vent Pression Humidité
    00:00 +8°C° 0 mm 1 m/s 755 mmHg 87%
    01:00 +8°C° 0 mm 1 m/s 756 mmHg 89%
    02:00 +6°C° 0 mm 2 m/s 756 mmHg 90%
    03:00 +8°C° 0 mm 1 m/s 756 mmHg 87%
    04:00 +9°C° 0 mm 1 m/s 756 mmHg 84%
    05:00 +9°C° 0 mm 1 m/s 757 mmHg 81%
    06:00 +12°C° 0 mm 1 m/s 757 mmHg 72%
    07:00 +14°C° 0 mm 1 m/s 757 mmHg 64%
    08:00 +16°C° 0 mm 1 m/s 757 mmHg 55%
    09:00 +18°C° 0 mm 1 m/s 757 mmHg 49%
    10:00 +19°C° 0 mm 1 m/s 757 mmHg 43%
    11:00 +20°C° 0 mm 1 m/s 757 mmHg 38%
    12:00 +20°C° 0 mm 1 m/s 757 mmHg 38%
    13:00 +20°C° 0 mm 1 m/s 757 mmHg 37%
    14:00 +20°C° 0 mm 1 m/s 757 mmHg 37%
    15:00 +20°C° 0 mm 1 m/s 757 mmHg 41%
    16:00 +20°C° 0 mm 1 m/s 757 mmHg 44%
    17:00 +19°C° 0 mm 1 m/s 756 mmHg 48%
    18:00 +16°C° 0 mm 1 m/s 756 mmHg 55%
    19:00 +15°C° 0 mm 1 m/s 756 mmHg 62%
    20:00 +13°C° 0 mm 1 m/s 756 mmHg 69%
    21:00 +12°C° 0 mm 1 m/s 756 mmHg 73%
    22:00 +11°C° 0 mm 1 m/s 756 mmHg 76%
    23:00 +10°C° 0 mm 1 m/s 756 mmHg 80%

    Demain, 27 Mai, Mercredi

    Heure Température Précipitation Vent Pression Humidité
    00:00 +9°C° 0 mm 1 m/s 756 mmHg 82%
    01:00 +9°C° 0 mm 1 m/s 756 mmHg 84%
    02:00 +9°C° 0 mm 1 m/s 755 mmHg 86%
    03:00 +9°C° 0 mm 1 m/s 755 mmHg 84%
    04:00 +10°C° 0 mm 1 m/s 755 mmHg 83%
    05:00 +10°C° 0 mm 1 m/s 755 mmHg 82%
    06:00 +12°C° 0 mm 1 m/s 755 mmHg 75%
    07:00 +14°C° 0 mm 1 m/s 755 mmHg 68%
    08:00 +16°C° 0 mm 1 m/s 755 mmHg 61%
    09:00 +18°C° 0.1 mm 1 m/s 755 mmHg 56%
    10:00 +19°C° 0.1 mm 1 m/s 754 mmHg 51%
    11:00 +21°C° 0.1 mm 1 m/s 754 mmHg 46%
    12:00 +20°C° 0 mm 1 m/s 754 mmHg 47%
    13:00 +20°C° 0 mm 1 m/s 753 mmHg 48%
    14:00 +20°C° 0 mm 1 m/s 753 mmHg 49%
    15:00 +19°C° 0.1 mm 1 m/s 753 mmHg 53%
    16:00 +17°C° 0.1 mm 0 m/s 753 mmHg 58%
    17:00 +16°C° 0.1 mm 0 m/s 752 mmHg 63%
    18:00 +15°C° 0 mm 0 m/s 752 mmHg 68%
    19:00 +14°C° 0 mm 1 m/s 752 mmHg 73%
    20:00 +13°C° 0 mm 1 m/s 752 mmHg 77%
    21:00 +12°C° 0 mm 1 m/s 752 mmHg 79%
    22:00 +11°C° 0 mm 1 m/s 752 mmHg 81%
    23:00 +11°C° 0 mm 1 m/s 752 mmHg 83%

    Après-demain, 28 Mai, Jeudi

    Heure Température Précipitation Vent Pression Humidité
    00:00 +11°C° 0 mm 1 m/s 752 mmHg 83%
    01:00 +11°C° 0 mm 1 m/s 752 mmHg 83%
    02:00 +10°C° 0 mm 0 m/s 752 mmHg 82%
    03:00 +11°C° 0 mm 0 m/s 751 mmHg 82%
    04:00 +11°C° 0 mm 0 m/s 751 mmHg 82%
    05:00 +11°C° 0 mm 0 m/s 751 mmHg 82%
    06:00 +14°C° 0.2 mm 1 m/s 751 mmHg 78%
    07:00 +15°C° 0.2 mm 1 m/s 751 mmHg 75%
    08:00 +16°C° 0.2 mm 1 m/s 751 mmHg 71%
    09:00 +18°C° 0.5 mm 1 m/s 751 mmHg 67%
    10:00 +19°C° 0.5 mm 1 m/s 751 mmHg 64%
    11:00 +19°C° 0.5 mm 2 m/s 751 mmHg 60%
    12:00 +19°C° 0.2 mm 2 m/s 750 mmHg 56%
    13:00 +20°C° 0.2 mm 2 m/s 750 mmHg 52%
    14:00 +21°C° 0.2 mm 2 m/s 750 mmHg 48%
    15:00 +21°C° 0.1 mm 1 m/s 750 mmHg 50%
    16:00 +21°C° 0.1 mm 1 m/s 749 mmHg 53%
    17:00 +21°C° 0.1 mm 1 m/s 749 mmHg 55%
    18:00 +19°C° 0.1 mm 1 m/s 749 mmHg 65%
    19:00 +16°C° 0.1 mm 1 m/s 749 mmHg 76%
    20:00 +14°C° 0.1 mm 1 m/s 749 mmHg 86%
    21:00 +13°C° 0 mm 1 m/s 749 mmHg 88%
    22:00 +13°C° 0 mm 1 m/s 749 mmHg 91%
    23:00 +12°C° 0 mm 1 m/s 749 mmHg 93%

    29 Mai, Vendredi

    Heure Température Précipitation Vent Pression Humidité
    00:00 +12°C° 0 mm 1 m/s 748 mmHg 94%
    01:00 +11°C° 0 mm 1 m/s 748 mmHg 94%
    02:00 +11°C° 0 mm 1 m/s 748 mmHg 95%
    03:00 +12°C° 0.3 mm 1 m/s 748 mmHg 95%
    04:00 +12°C° 0.3 mm 1 m/s 747 mmHg 95%
    05:00 +13°C° 0.3 mm 2 m/s 747 mmHg 95%
    06:00 +13°C° 1.6 mm 2 m/s 747 mmHg 96%
    07:00 +13°C° 1.6 mm 1 m/s 746 mmHg 97%
    08:00 +13°C° 1.6 mm 1 m/s 746 mmHg 97%
    09:00 +13°C° 0.9 mm 1 m/s 746 mmHg 96%
    10:00 +13°C° 0.9 mm 1 m/s 746 mmHg 95%
    11:00 +14°C° 0.9 mm 1 m/s 746 mmHg 94%
    12:00 +14°C° 0.1 mm 1 m/s 746 mmHg 91%
    13:00 +14°C° 0.1 mm 1 m/s 746 mmHg 89%
    14:00 +15°C° 0.1 mm 1 m/s 746 mmHg 86%
    15:00 +15°C° 0 mm 1 m/s 746 mmHg 84%
    16:00 +16°C° 0 mm 2 m/s 746 mmHg 83%
    17:00 +16°C° 0 mm 2 m/s 747 mmHg 81%
    18:00 +15°C° 0 mm 2 m/s 747 mmHg 86%
    19:00 +14°C° 0 mm 2 m/s 747 mmHg 91%
    20:00 +13°C° 0 mm 1 m/s 748 mmHg 96%
    21:00 +12°C° 0 mm 1 m/s 748 mmHg 97%
    22:00 +11°C° 0 mm 1 m/s 748 mmHg 97%
    23:00 +11°C° 0 mm 1 m/s 748 mmHg 98%

    30 Mai, Samedi

    Heure Température Précipitation Vent Pression Humidité
    00:00 +9°C° 0 mm 2 m/s 748 mmHg 98%
    01:00 +9°C° 0 mm 2 m/s 748 mmHg 98%
    02:00 +9°C° 0 mm 2 m/s 749 mmHg 98%
    03:00 +9°C° 0 mm 2 m/s 749 mmHg 96%
    04:00 +10°C° 0 mm 2 m/s 749 mmHg 94%
    05:00 +10°C° 0 mm 3 m/s 749 mmHg 91%
    06:00 +12°C° 0 mm 3 m/s 749 mmHg 84%
    07:00 +13°C° 0 mm 4 m/s 749 mmHg 77%
    08:00 +15°C° 0 mm 4 m/s 749 mmHg 70%
    09:00 +15°C° 0 mm 4 m/s 749 mmHg 69%
    10:00 +17°C° 0 mm 4 m/s 749 mmHg 67%
    11:00 +17°C° 0 mm 4 m/s 749 mmHg 66%
    12:00 +18°C° 0 mm 4 m/s 749 mmHg 66%
    13:00 +18°C° 0 mm 4 m/s 749 mmHg 66%
    14:00 +19°C° 0 mm 4 m/s 749 mmHg 65%
    15:00 +19°C° 0 mm 4 m/s 749 mmHg 64%
    16:00 +19°C° 0 mm 4 m/s 749 mmHg 64%
    17:00 +19°C° 0 mm 4 m/s 749 mmHg 63%
    18:00 +18°C° 0 mm 4 m/s 749 mmHg 66%
    19:00 +17°C° 0 mm 4 m/s 749 mmHg 69%
    20:00 +15°C° 0 mm 4 m/s 749 mmHg 73%
    21:00 +15°C° 0 mm 4 m/s 749 mmHg 71%
    22:00 +14°C° 0 mm 5 m/s 749 mmHg 69%
    23:00 +14°C° 0 mm 5 m/s 749 mmHg 67%

    31 Mai, Dimanche

    Heure Température Précipitation Vent Pression Humidité
    00:00 +13°C° 0 mm 5 m/s 749 mmHg 66%
    01:00 +12°C° 0 mm 5 m/s 749 mmHg 66%
    02:00 +10°C° 0 mm 5 m/s 749 mmHg 65%
    03:00 +10°C° 0 mm 6 m/s 749 mmHg 64%
    04:00 +10°C° 0 mm 6 m/s 748 mmHg 63%
    05:00 +10°C° 0 mm 6 m/s 748 mmHg 62%
    06:00 +11°C° 0 mm 7 m/s 748 mmHg 58%
    07:00 +12°C° 0 mm 7 m/s 748 mmHg 54%
    08:00 +14°C° 0 mm 7 m/s 748 mmHg 50%
    09:00 +15°C° 0 mm 7 m/s 748 mmHg 47%
    10:00 +16°C° 0 mm 7 m/s 748 mmHg 45%
    11:00 +17°C° 0 mm 7 m/s 748 mmHg 42%
    12:00 +17°C° 0 mm 7 m/s 748 mmHg 43%
    13:00 +18°C° 0 mm 7 m/s 747 mmHg 44%
    14:00 +18°C° 0 mm 7 m/s 747 mmHg 45%
    15:00 +17°C° 0 mm 7 m/s 747 mmHg 46%
    16:00 +17°C° 0 mm 6 m/s 747 mmHg 47%
    17:00 +16°C° 0 mm 6 m/s 747 mmHg 48%
    18:00 +15°C° 0 mm 5 m/s 747 mmHg 53%
    19:00 +13°C° 0 mm 5 m/s 748 mmHg 58%
    20:00 +12°C° 0 mm 4 m/s 748 mmHg 64%
    21:00 +11°C° 0 mm 4 m/s 749 mmHg 64%
    22:00 +10°C° 0 mm 4 m/s 749 mmHg 65%
    23:00 +9°C° 0 mm 3 m/s 749 mmHg 66%
    Voir plus